Showing default

NINGXIA-1 4, 44782

Orbit data source: Space-Track

NINGXIA-1 4, 44782 is a Chinese payload satellite in LEO that was launched on Wed, 13 Nov 2019 UTC via a CHANG ZHENG 6 launch vehicle from the Taiyaun Space Center, China (TSC). Payload-class satellites include a variety of spacecraft equipped with specific instruments for various scientific and technological missions. These include communications satellites like Starlink; space stations such as the ISS; scientific satellites like the Hubble; Earth observation satellites from companies like Planet Labs, Umbra, and HawkEye 360; GPS; miniature CubeSats for education and research; and military/defense satellites.

Loading next visibility...
Identifier
44782, 2019-076D
Orbit
LEO
Country
Flag of CNCN / PRC
Related business
Manufacturer
DFH
Mission
Operational Commercial Sigint
Bus & Motor
NX-1, Unknown motor
Mass
~100 kg wet, ~100 kg dry
Launch date (UTC)
2019-11-13 (7 years ago)
Launch vehicle
CHANG ZHENG 6
Launch site
Taiyaun Space Center, China (TSC)
Object type
Payload
Rocket body
Debris
Shape & HBR
Box + 2 Pan, Unknown HBR
Radar Cross Section
0.166 m², Medium (>0.1 m² and < 1m²)

Expand to show TLE details & history
Last TLE update: 9 hours ago

TLE from 9 hours ago
0 NINGXIA-1 4
1 44782U 19076D   26166.92517704  .00000097  00000-0  14777-3 0  9999
2 44782  45.0062 185.4669 0011624 120.8505 239.3474 14.02070236337648
Epoch: 2026-06-15T22:12Z
TLE epoch observation values (Epoch: 2026-06-15T22:12:15.296Z)
Latitude
-0.00001°
Longitude
-51.80141°
Altitude
890.947 km
Speed
7.406 km/s
True Right ascension
12h 21m 52s
True Declination
0° 00' 00"
Sunlit
Object was in daylight at epoch
Visualization orbit readout
Latitude
Unknown
Longitude
Unknown
Altitude
Unknown
Speed
Unknown
Apparent Right ascension
Unknown
Apparent Declination
Unknown
Sunlit
N/A
Visualization observer readout
Local Sidereal Time
17:26:59
Azimuth
Unknown
Elevation
Unknown
Doppler factor
Unknown
Orbital elements
Apogee altitude
896.601 km
Perigee altitude
879.708 km
Semi-major axis
7,266.291 km
Eccentricity
0.00116
Inclination
45.0062°
RAAN
185.4669°
Arg. of periapsis
120.8505°
True anomaly
239.2329°
Mean anomaly
239.3474°
Eccentric anomaly
239.29014°
Mean motion
3.50408 °/min
Orbital period
102.74 mins
BSTAR
0.00014777
Loading maneuver chart data...
Computing Atmospheric mass density...
Loading historical data...
Loading historical data...
Loading historical data...
Loading historical data...
Loading historical data...
Loading historical data...
Loading historical data...
Other satellites on launch #76 in the year 2019 (2019-11-13 UTC)

Documentation

Showing up to 5 results
|